Simultaneous Nadir Overpasses (SNOs) Predictions

Prediction of SNOs between AURA and NPP Satellite Orbit:

Table of predicted SNOs for the next 14.0 days since TLE Epoch: 8/14/2015
Index Date (AURA) Time (AURA) Lat,Lon (AURA) SZA (AURA ) Date (NPP) Time (NPP) Lat,Lon (NPP) SZA (NPP ) Distance(km) Time Diff (sec)
1 08/15/2015 16:40:58 -78.33, -0.23 99.54 08/15/2015 16:39:52 -78.33, -0.31 99.47 1.90 66
2 08/15/2015 17:30:11 78.86, 170.24 79.76 08/15/2015 17:30:22 78.87, 170.30 79.74 1.24 11
3 08/18/2015 08:57:21 -78.51, 116.54 98.96 08/18/2015 08:56:39 -78.50, 116.46 98.91 2.06 42
4 08/18/2015 09:46:35 78.99, -73.15 80.40 08/18/2015 09:47:10 79.00, -73.09 80.36 1.57 35
5 08/21/2015 01:13:45 -78.67,-126.71 98.35 08/21/2015 01:13:27 -78.67,-126.76 98.32 1.21 18
6 08/21/2015
